DELTA 1 DEB, 21289

Orbit data source: Space-Track

DELTA 1 DEB, 21289 is space debris in SSO originally from a launch on Thu, 12 Jun 1975 UTC launched from the Air Force Western Test Range (AFWTR). Debris objects in space refer to the collection of defunct objects orbiting the Earth. Examples of debris include non-operational satellites, rocket bodies, and fragments generated from explosions, collisions, or faulty payload assembly.

Loading next visibility...
Identifier
21289, 1975-052AA
Orbit
SSO
Country
Flag of USUS
Related business
Manufacturer
Unknown
Mission
Spacecraft
Bus & Motor
Unknown
Mass
Unknown
Launch date (UTC)
1975-06-12 (50 years ago)
Launch vehicle
Unknown
Launch site
Air Force Western Test Range (AFWTR)
Object type
Payload
Rocket body
Debris
Shape & HBR
Unknown
Radar Cross Section
Small (<0.1 m²)

Expand to show TLE details & history
Last TLE update: 15 hours ago

TLE from 15 hours ago
0 DELTA 1 DEB
1 21289U 75052AA  25258.93700554  .00000388  00000-0  12383-2 0  9994
2 21289  99.8761 264.9703 0246230 269.5221 158.5662 12.99950534628915
Epoch: 2025-09-15T22:29Z
TLE epoch observation values (Epoch: 2025-09-15T22:29:17.278Z)
Latitude
67.04892°
Longitude
-91.63533°
Altitude
1,449.532 km
Speed
7.061 km/s
True Right ascension
16h 03m 17s
True Declination
66° 56' 10"
Sunlit
Object was in daylight at epoch
Visualization orbit readout
Latitude
Unknown
Longitude
Unknown
Altitude
Unknown
Speed
Unknown
Apparent Right ascension
Unknown
Apparent Declination
Unknown
Sunlit
N/A
Visualization observer readout
Local Sidereal Time
06:35:38
Azimuth
Unknown
Elevation
Unknown
Doppler factor
Unknown
Orbital elements
Apogee altitude
1,447.725 km
Perigee altitude
1,071.594 km
Semi-major axis
7,637.796 km
Eccentricity
0.02462
Inclination
99.8761°
RAAN
264.9703°
Arg. of periapsis
269.5221°
True anomaly
159.56848°
Mean anomaly
158.5662°
Eccentric anomaly
159.07017°
Mean motion
3.25155 °/min
Orbital period
110.72 mins
BSTAR
0.0012383
Loading maneuver chart data...
Computing Atmospheric mass density...
Loading historical data...
Loading historical data...
Loading historical data...
Loading historical data...
Loading historical data...
Loading historical data...
Loading historical data...

Documentation

Showing up to 5 results
|